SCP
0 0 0 0 0 0 0 0 0 0 0 0 0 0 0 0 0 0 0 0 0 0
0 0 0 0 0 0 0 0 0 0 0 0 0 0 0 0 0 0 0 0 0 0
0 0 0 0 0 0 0 0 0 0 0 0 0 0 0 0 0 0 0 0 0 0
0 0 0 0 0 0 0 0 0 0 0 0 0 0 0 0 0 0 0 0 0 0
0 0 0 0 0 0 0 0 0 0 0 0 0 0 0 0 0 0 0 0 0 0
0 0 0 0 0 0 0 0 0 0 0 0 0 0 0 0 0 0 0 0 0 0
0 0 0 0 0 0 0 0 0 0 0 0 0 0 0 0 0 0 0 0 0 0
0 0 0 0 0 0 0 0 0 0 0 0 0 0 0 0 0 0 0 0 0 0
0 0 0 0 0 0 0 0 0 0 0 0 0 0 0 0 0 0 0 0 0 0
0 0 0 0 0 0 0 0 0 0 0 0 0 0 0 0 0 0 0 0 0 0
0 0 0 0 0 0 1 1 0 0 0 0 0 0 0 0 0 0 0 0 0 0
0 0 0 0 0 1 1 1 1 0 0 0 0 0 0 0 0 0 0 0 0 0
0 0 0 0 1 1 1 1 1 0 0 0 0 0 0 0 0 0 0 0 0 0
0 1 1 1 1 1 1 1 1 0 1 1 0 0 0 0 0 0 0 0 0 0
Wind_Speed_500mb
11 1 4 16 14 2 12 19 25 29 23 22 22 28 21 20 27 36 39 34 33 35
9 15 9 19 17 16 12 18 22 24 27 25 22 29 32 25 26 29 32 35 34 36
14 11 14 14 22 25 23 21 21 19 26 27 24 30 32 34 29 32 29 28 28 34
21 15 18 19 15 28 28 22 23 23 23 25 27 27 32 32 33 32 32 27 23 31
23 19 21 22 23 24 27 26 25 23 24 25 25 27 34 35 34 32 33 36 28 24
25 24 25 28 27 29 25 26 27 27 27 27 30 31 32 36 35 35 37 37 40 32
21 25 29 31 31 31 26 28 27 31 30 32 30 31 38 34 37 51 53 47 41 42
22 26 26 28 29 32 28 28 26 33 35 35 38 39 40 42 47 52 56 50 45 37
20 22 26 29 33 31 29 31 36 39 38 40 43 39 42 47 54 58 59 58 51 40
22 24 28 30 31 34 35 39 42 42 43 45 47 48 44 46 56 63 65 65 49 42
23 26 28 32 38 38 42 45 49 50 53 53 54 54 54 50 55 62 64 59 48 49
24 27 29 35 41 48 50 51 54 57 60 61 67 68 68 65 66 67 65 60 44 45
25 31 38 41 45 47 51 58 61 68 70 69 74 78 72 71 70 59 55 62 49 41
27 35 43 44 52 58 65 72 75 72 66 66 75 80 71 61 75 68 72 53 40 45
Wind_Direction_500mb
310 39 320 280 313 342 340 314 325 337 337 346 345 343 352 357 350 351 358 350 345 345
291 314 312 311 339 313 305 307 308 332 326 336 333 337 347 348 351 345 356 350 348 357
257 302 293 310 312 318 320 310 322 318 321 327 325 323 331 343 339 340 342 345 337 340
263 262 281 290 299 305 319 315 316 327 310 322 318 317 316 331 338 333 325 331 321 333
265 270 273 283 289 292 306 310 306 315 317 307 309 316 310 319 325 330 323 323 311 309
275 283 286 287 291 289 294 301 302 307 316 317 313 299 299 305 318 311 306 307 307 303
263 269 277 279 280 290 299 298 302 303 304 304 303 309 309 309 293 299 304 305 299 303
272 286 287 292 290 293 289 296 292 293 300 303 303 298 298 300 300 310 312 308 302 294
277 277 280 284 293 302 306 302 297 293 288 287 287 290 290 292 298 307 311 310 307 298
284 286 285 288 290 293 295 296 296 298 297 294 293 293 291 290 296 303 308 308 306 300
284 284 285 284 286 291 294 299 302 304 303 300 299 300 298 293 290 294 299 304 306 303
286 289 288 287 293 293 294 301 304 305 305 301 304 304 305 298 289 291 294 293 291 292
285 282 286 288 296 306 302 302 305 305 305 302 298 301 309 310 297 288 284 282 285 297
286 287 292 307 314 307 309 309 307 305 309 310 311 312 305 300 299 297 293 291 277 282
Wind_Speed_850mb
11 1 4 16 14 2 12 19 25 29 23 22 22 28 21 20 27 36 39 34 33 35
9 15 9 19 17 16 12 18 22 24 27 25 22 29 32 25 26 29 32 35 34 36
14 11 14 14 22 25 23 21 21 19 26 27 24 30 32 34 29 32 29 28 28 34
21 15 18 19 15 28 28 22 23 23 23 25 27 27 32 32 33 32 32 27 23 31
23 19 21 22 23 24 27 26 25 23 24 25 25 27 34 35 34 32 33 36 28 24
25 24 25 28 27 29 25 26 27 27 27 27 30 31 32 36 35 35 37 37 40 32
21 25 29 31 31 31 26 28 27 31 30 32 30 31 38 34 37 51 53 47 41 42
22 26 26 28 29 32 28 28 26 33 35 35 38 39 40 42 47 52 56 50 45 37
20 22 26 29 33 31 29 31 36 39 38 40 43 39 42 47 54 58 59 58 51 40
22 24 28 30 31 34 35 39 42 42 43 45 47 48 44 46 56 63 65 65 49 42
23 26 28 32 38 38 42 45 49 50 53 53 54 54 54 50 55 62 64 59 48 49
24 27 29 35 41 48 50 51 54 57 60 61 67 68 68 65 66 67 65 60 44 45
25 31 38 41 45 47 51 58 61 68 70 69 74 78 72 71 70 59 55 62 49 41
27 35 43 44 52 58 65 72 75 72 66 66 75 80 71 61 75 68 72 53 40 45
Wind_Direction_850mb
310 39 320 280 313 342 340 314 325 337 337 346 345 343 352 357 350 351 358 350 345 345
291 314 312 311 339 313 305 307 308 332 326 336 333 337 347 348 351 345 356 350 348 357
257 302 293 310 312 318 320 310 322 318 321 327 325 323 331 343 339 340 342 345 337 340
263 262 281 290 299 305 319 315 316 327 310 322 318 317 316 331 338 333 325 331 321 333
265 270 273 283 289 292 306 310 306 315 317 307 309 316 310 319 325 330 323 323 311 309
275 283 286 287 291 289 294 301 302 307 316 317 313 299 299 305 318 311 306 307 307 303
263 269 277 279 280 290 299 298 302 303 304 304 303 309 309 309 293 299 304 305 299 303
272 286 287 292 290 293 289 296 292 293 300 303 303 298 298 300 300 310 312 308 302 294
277 277 280 284 293 302 306 302 297 293 288 287 287 290 290 292 298 307 311 310 307 298
284 286 285 288 290 293 295 296 296 298 297 294 293 293 291 290 296 303 308 308 306 300
284 284 285 284 286 291 294 299 302 304 303 300 299 300 298 293 290 294 299 304 306 303
286 289 288 287 293 293 294 301 304 305 305 301 304 304 305 298 289 291 294 293 291 292
285 282 286 288 296 306 302 302 305 305 305 302 298 301 309 310 297 288 284 282 285 297
286 287 292 307 314 307 309 309 307 305 309 310 311 312 305 300 299 297 293 291 277 282